{"data":{"norad_id":55348,"intl_designator":"2023-013T","name":"STARLINK-5609","alt_names":[],"object_type":"PAYLOAD","status":"ACTIVE","operator":null,"country":"US","launch_date":"2023-01-26","launch_site_code":"AFETR","launch_vehicle":null,"mission":null,"orbit_class":"UNKNOWN","rcs_meters":null,"size_class":null,"mass_kg":null,"dimensions":null,"purposes":["comms"],"wikipedia_slug":null,"has_3d_model":false,"image_url":null,"decayed_at":null,"tle_current":{"epoch":"2026-09-20T07:58:30.345024Z","epoch_age_seconds":111097,"freshness":"FRESH","line1":"1 55348U 23013T   26263.33229566  .00000325  00000+0  21329-4 0  9999","line2":"2 55348  43.0029 283.9839 0001564 270.9063  89.1609 15.27575387201444","mean_motion":15.27575387,"eccentricity":0.0001564,"inclination_deg":43.0029,"raan_deg":283.9839,"arg_perigee_deg":270.9063,"mean_anomaly_deg":89.1609,"bstar":2.1329e-5,"rev_number":20144,"period_min":94.267033382098,"perigee_km":481.98981739016,"apogee_km":484.13600072171,"semimajor_km":6861.1999090559,"source":"CELESTRAK","updated_at":"2026-09-21T09:00:33.182099Z"}}}